Find Starlink 3240

NORAD ID: 49728 Int'l Des: 2021-115 Owner: SPXS Country: US Constellation: starlink operational
LEOCIRCULAR

リアルタイム位置

3D地球を読み込み中...

Starlink 3240について

説明を読み込み中...

次回通過

Passes for default location (London). Set your location on the main map for personalized predictions.

高度履歴

Loading altitude history...

軌道要素

1 49728U 21115E 26125.79890146 .00000011 00000-0 18769-4 0 9997
2 49728 53.2180 262.7466 0001418 93.5537 266.5618 15.08845057244018
Epoch: May 5, 2026 • Age: 17 hours

現在のステータス

高度 541.6 km
速度 7.59 km/s
衛星直下点 -6.04°S, 41.3°E
打ち上げ日 Dec 2, 2021
運用期間 4.4 years
タイプ internet

技術仕様

分類 Payload
質量 290.00 kg
乾燥質量 270.00 kg
総質量 290.00 kg
長さ 0.20 m
直径 2.80 m
スパン 9.00 m
形状 Box + pan
製造者 SPXS
バスタイプ Starlink
フェーズステータス In Orbit
所有者/国 SPXS/US

Most Searched